Orange Grove, TX

6:48 PM CDT on August 24, 2016 (GMT -0500)
Orange Grove Naval Air Landing Field

Weather History for KNOG - December, 2013

Change the Weather History Date:

Monday, December 16, 2013

  Actual Average (KALI) Record (KALI)
Temperature  
Mean Temperature 62 °F -  
Max Temperature 77 °F 67 °F 82 °F (2012)
Min Temperature 48 °F 43 °F 32 °F (2007)
Degree Days  
Heating Degree Days 2    
Growing Degree Days 12 (Base 50)    
Moisture  
Dew Point 34 °F    
Average Humidity 34    
Maximum Humidity 46    
Minimum Humidity 22    
Precipitation  
Precipitation 0.00 in - - ()
Sea Level Pressure  
Sea Level Pressure 30.24 in    
Wind  
Wind Speed 6 mph (SSW)    
Max Wind Speed 9 mph    
Max Gust Speed -    
Visibility 10 miles    
Events      
Averages and records for this station are not official NWS values.
T = Trace of Precipitation, MM = Missing Value Source: NWS Daily Summary

Daily Weather History Graph

Daily Weather History Graph

Search for Another Location

Airport or City:

Trip Planner

Search our weather history database for the weather conditions in past years. The results will help you decide how hot, cold, wet, or windy it might be!

Date:

Astronomy

Dec. 16, 2013 Rise Set
Actual Time 7:16 AM CST 5:39 PM CST
Civil Twilight 6:50 AM CST 6:05 PM CST
Nautical Twilight 6:21 AM CST 6:34 PM CST
Astronomical Twilight 5:52 AM CST 7:03 PM CST
Moon 5:26 PM CST (12/16) 6:30 AM CST (12/16)
Length of Visible Light 11h 14m
Length of Day
10h 23m
Full, 100% of the Moon is Illuminated
Dec 16
Full
Dec 17
Full
Dec 25
Last Quarter
Jan 1
New
Jan 7
First Quarter

Hourly Weather History & Observations

Time (CST) Temp. Dew Point Humidity Pressure Visibility Wind Dir Wind Speed Gust Speed Precip Events Conditions
12:56 AM 50.0 °F 28.9 °F 44% 30.28 in - West 3.5 mph - N/A   Clear
1:56 AM 55.9 °F 28.9 °F 36% 30.28 in - West 8.1 mph - N/A   Clear
2:56 AM 62.1 °F 30.0 °F 30% 30.27 in - West 8.1 mph - N/A   Clear
3:56 AM 62.1 °F 30.0 °F 30% 30.27 in - West 8.1 mph - N/A   Clear
4:56 AM 57.0 °F 28.9 °F 34% 30.26 in - West 8.1 mph - N/A   Clear
5:56 AM 62.1 °F 30.9 °F 31% 30.27 in - West 9.2 mph - N/A   Clear
6:56 AM 48.9 °F 28.9 °F 46% 30.27 in - West 5.8 mph - N/A   Clear
7:56 AM 61.0 °F 30.9 °F 32% 30.28 in - West 5.8 mph - N/A   Clear
8:56 AM 73.9 °F 33.1 °F 22% 30.30 in - SW 4.6 mph - N/A   Clear
9:56 AM - - N/A% 30.31 in 10.0 mi South 5.8 mph - N/A   Clear
10:56 AM - - N/A% 30.30 in 10.0 mi SSE 6.9 mph - N/A   Clear
11:56 AM - - N/A% 30.27 in 10.0 mi Variable 4.6 mph - N/A   Clear
12:56 PM - - N/A% 30.23 in 10.0 mi Variable 4.6 mph - N/A   Clear
1:56 PM - - N/A% 30.20 in 10.0 mi North - - N/A   Clear
2:56 PM - - N/A% 30.18 in 10.0 mi SSE 4.6 mph - N/A   Clear
3:56 PM - - N/A% 30.18 in 10.0 mi South 5.8 mph - N/A   Clear
4:56 PM - - N/A% 30.18 in 10.0 mi SE 5.8 mph - N/A   Clear
5:56 PM - - N/A% 30.19 in 10.0 mi SE 6.9 mph - N/A   Clear
6:56 PM 77.0 °F 37.9 °F 24% 30.21 in 10.0 mi SE 8.1 mph - N/A   Clear
7:56 PM 70.0 °F 37.9 °F 31% 30.22 in 10.0 mi SE 6.9 mph - N/A   Clear
8:56 PM 69.1 °F 37.9 °F 32% 30.23 in 10.0 mi SSE 5.8 mph - N/A   Clear
9:56 PM 66.9 °F 39.0 °F 36% 30.23 in - South 4.6 mph - N/A   Clear
10:56 PM 68.0 °F 41.0 °F 37% 30.23 in - SSW 4.6 mph - N/A   Clear
11:56 PM 64.9 °F 42.1 °F 43% 30.23 in - SW 5.8 mph - N/A   Clear